DW9924 Weather Reports


time (UTC)temp
C
wind
direction
speed
KPH
gust
KPH
rain 1hr
cm
rain 24hr
cm
rain mn
cm
humidity
%
barometer
mb
20260506144904 18 197 1.6 4.8 0.00 3.15 3.15 79 1010.2
20260506144405 18 160 3.2 9.7 0.00 3.15 3.15 76 1010.1
20260506143905 18 181 3.2 8.0 0.00 3.15 3.15 75 1010.1
20260506143405 19 205 3.2 9.7 0.00 3.15 3.15 74 1010.1
20260506141904 20 142 4.8 9.7 0.00 3.15 3.15 73 1010.2
20260506141405 20 222 1.6 8.0 0.00 3.15 3.15 74 1010.2
20260506140405 20 196 1.6 8.0 0.00 3.15 3.15 75 1010.2
20260506134405 19 214 1.6 4.8 0.00 3.15 3.15 76 1010.3
20260506133905 19 236 1.6 12.9 0.00 3.15 3.15 78 1010.3
20260506133405 18 227 8.0 12.9 0.00 3.15 3.15 76 1010.4
20260506131904 18 243 4.8 12.9 0.00 3.15 3.15 79 1010.4
20260506131405 19 145 1.6 9.7 0.00 3.15 3.15 80 1010.4
20260506130907 19 141 4.8 9.7 0.00 3.15 3.15 81 1010.3
20260506130407 18 151 4.8 12.9 0.00 3.15 3.15 81 1010.3
20260506124905 18 186 4.8 8.0 0.00 3.15 3.15 81 1010.3
20260506123905 18 167 6.4 11.3 0.00 3.15 3.15 83 1010.2
20260506123405 18 171 4.8 12.9 0.00 3.15 3.15 83 1010.2
20260506121904 18 160 4.8 11.3 0.00 3.15 3.15 82 1010.1
20260506120904 18 161 4.8 11.3 0.00 3.15 3.15 82 1010.1
20260506120404 18 156 4.8 12.9 0.00 3.15 3.15 81 1010.0
20260506114904 19 163 3.2 11.3 0.00 3.15 3.15 80 1010.0
20260506114404 19 123 3.2 11.3 0.00 3.15 3.15 80 1010.0
20260506111920 18 137 1.6 8.0 0.00 3.15 3.15 84 1010.0
20260506110905 17 184 3.2 11.3 0.00 3.15 3.15 83 1010.0
20260506110404 18 167 4.8 9.7 0.00 3.15 3.15 82 1010.0
20260506104905 18 149 4.8 8.0 0.00 3.15 3.15 82 1010.1
20260506103904 18 174 3.2 4.8 0.00 3.15 3.15 81 1010.0
20260506103404 18 234 3.2 8.0 0.00 3.15 3.15 81 1010.1
20260506101404 17 233 3.2 4.8 0.00 3.15 3.15 84 1010.1
20260506100910 17 187 1.6 4.8 0.00 3.15 3.15 84 1010.0
20260506094905 17 221 3.2 4.8 0.00 3.15 3.15 85 1009.9
20260506094405 17 193 1.6 4.8 0.00 3.15 3.15 85 1009.9
20260506093405 17 230 1.6 8.0 0.00 3.15 3.15 86 1010.0
20260506091909 17 249 1.6 8.0 0.00 3.15 3.15 87 1009.8
20260506091407 17 215 1.6 4.8 0.00 3.15 3.15 86 1009.7
20260506090906 17 221 3.2 9.7 0.00 3.15 3.15 86 1009.7
20260506090410 17 249 1.6 9.7 0.00 3.15 3.15 87 1009.5
20260506084907 18 229 1.6 14.5 0.00 3.15 3.15 88 1009.4
20260506084407 18 251 4.8 8.0 0.00 3.15 3.15 88 1009.4
20260506083909 17 195 3.2 12.9 0.00 3.15 3.15 89 1009.3
20260506083407 17 203 3.2 19.3 0.00 3.15 3.15 91 1009.3
20260506081908 17 114 3.2 4.8 0.00 3.15 3.15 91 1009.1
20260506081407 17 74 4.8 12.9 0.00 3.15 3.15 92 1009.1
20260506080908 17 227 4.8 14.5 0.00 3.15 3.15 92 1009.0
20260506080406 17 279 4.8 22.5 0.00 3.15 3.15 92 1009.1
20260506073407 16 146 11.3 22.5 0.03 3.17 3.15 91 1009.0
20260506071906 16 143 11.3 22.5 0.18 3.17 3.15 91 1008.8
20260506071406 16 151 14.5 24.1 0.18 3.17 3.15 91 1008.9
20260506070407 16 150 11.3 24.1 0.18 3.17 3.15 91 1008.9
20260506061906 16 174 8.0 19.3 0.00 3.10 2.97 88 1008.5
20260506061406 16 147 8.0 19.3 0.00 3.15 2.97 88 1008.4
20260506060906 16 139 9.7 19.3 0.00 3.20 2.97 88 1008.6
20260506051406 15 90 4.8 16.1 0.03 4.70 2.97 88 1008.6
20260506050407 15 143 3.2 14.5 0.03 4.83 2.97 88 1008.4
20260506044907 15 49 1.6 4.8 0.05 5.16 2.97 88 1008.5
20260506044407 15 92 3.2 4.8 0.05 5.26 2.97 88 1008.5
20260506043907 15 45 3.2 4.8 0.05 5.31 2.97 88 1008.6
20260506043406 15 31 1.6 8.0 0.05 5.38 2.97 88 1008.5
20260506041906 15 37 3.2 4.8 0.05 5.44 2.97 87 1008.8
20260506041406 15 113 3.2 11.3 0.05 5.44 2.97 87 1008.8
20260506040906 15 37 4.8 9.7 0.05 5.46 2.97 87 1008.8
20260506040406 15 27 4.8 12.9 0.05 5.56 2.97 87 1009.0
20260506034407 14 29 4.8 11.3 0.05 5.87 2.92 87 1008.9
20260506033906 14 36 4.8 11.3 0.18 5.97 2.92 87 1008.8
20260506033407 13 40 4.8 14.5 0.41 5.97 2.92 87 1008.8
20260506031907 13 18 9.7 20.9 0.94 6.10 2.92 89 1008.7
20260506031409 13 58 8.0 19.3 1.27 6.15 2.92 89 1008.6
20260506030906 13 78 3.2 8.0 1.63 6.15 2.92 89 1008.8
20260506024906 14 273 0.0 4.8 2.34 6.12 2.90 89 1009.0
20260506023906 14 58 1.6 4.8 2.24 5.97 2.74 89 1010.0
20260506021906 15 343 3.2 4.8 1.75 5.33 1.98 89 1009.6
20260506020906 15 315 3.2 9.7 1.14 4.70 1.30 89 1009.7
20260506020406 15 327 1.6 3.2 0.69 4.22 0.79 88 1010.0
20260506013410 15 328 1.6 8.0 0.43 3.91 0.43 87 1010.4
20260506011908 15 36 1.6 4.8 0.20 3.71 0.23 86 1010.3
20260506011406 15 107 1.6 4.8 0.15 3.68 0.18 86 1010.4
20260506010906 15 24 3.2 12.9 0.15 3.68 0.15 86 1010.2
20260506010406 15 40 3.2 9.7 0.13 3.63 0.13 85 1010.1
20260506004909 16 49 1.6 4.8 0.05 3.58 0.05 85 1010.3
20260506004406 16 109 1.6 3.2 0.03 3.56 0.03 84 1010.5
20260506003906 16 104 1.6 4.8 0.03 3.56 0.03 84 1010.5
20260506003407 16 109 3.2 9.7 0.03 3.56 0.03 84 1010.5
20260506001406 16 58 1.6 3.2 0.03 3.56 0.03 83 1010.6
20260506000907 16 61 1.6 4.8 0.00 3.53 0.00 83 1010.5
20260506000408 16 36 1.6 4.8 0.00 3.53 0.00 83 1010.5
20260505234905 16 109 1.6 4.8 0.00 3.53 0.00 83 1010.8
20260505234406 16 77 1.6 4.8 0.00 3.53 0.00 83 1010.9
20260505233909 16 358 1.6 3.2 0.00 3.53 0.00 83 1011.1
20260505233409 16 59 1.6 4.8 0.00 3.53 0.00 83 1011.2
20260505231913 16 47 1.6 4.8 0.00 3.53 0.00 84 1011.4
20260505230905 16 108 1.6 8.0 0.00 3.53 0.00 84 1011.5
20260505230407 16 114 1.6 4.8 0.00 3.53 0.00 84 1011.7
20260505224906 16 45 1.6 4.8 0.00 3.53 0.00 84 1011.7
20260505224406 16 79 1.6 4.8 0.00 3.53 0.00 84 1011.7
20260505223406 16 88 3.2 4.8 0.00 3.53 0.00 84 1011.9
20260505221909 16 146 1.6 8.0 0.00 3.53 0.00 84 1012.1
20260505221405 16 140 3.2 4.8 0.00 3.53 0.00 85 1012.2
20260505220906 16 120 1.6 9.7 0.00 3.53 0.00 84 1012.1
20260505220405 16 112 1.6 4.8 0.00 3.53 0.00 84 1012.0
20260505214907 16 60 3.2 4.8 0.00 3.53 3.53 84 1012.2
20260505213407 16 61 0.0 3.2 0.00 3.53 3.53 84 1012.1
20260505211905 16 55 1.6 4.8 0.00 3.53 3.53 84 1012.4
20260505211406 16 50 1.6 4.8 0.00 3.53 3.53 84 1012.4
20260505210907 16 31 1.6 3.2 0.00 3.53 3.53 84 1012.3
20260505210407 16 20 1.6 9.7 0.00 3.53 3.53 84 1012.3
20260505204905 16 59 1.6 4.8 0.00 3.53 3.53 84 1012.4
20260505204406 16 15 1.6 3.2 0.00 3.53 3.53 84 1012.4
20260505203406 16 104 0.0 4.8 0.00 3.53 3.53 83 1012.7
20260505201906 16 86 1.6 4.8 0.00 3.53 3.53 83 1012.7
20260505201406 16 95 0.0 3.2 0.00 3.53 3.53 82 1012.8
20260505200906 16 97 1.6 4.8 0.00 3.53 3.53 83 1012.8
20260505200406 16 4 1.6 4.8 0.00 3.53 3.53 83 1012.7
20260505194910 16 149 1.6 3.2 0.00 3.53 3.53 83 1012.8
20260505194408 16 121 1.6 4.8 0.00 3.53 3.53 83 1012.7
20260505193905 16 105 1.6 3.2 0.00 3.53 3.53 83 1012.7
20260505193406 16 109 1.6 4.8 0.00 3.53 3.53 83 1012.6
20260505191906 16 116 1.6 3.2 0.00 3.53 3.53 83 1012.5
20260505191405 16 171 3.2 4.8 0.00 3.53 3.53 83 1012.5
20260505190907 16 136 1.6 4.8 0.00 3.53 3.53 83 1012.5
20260505184906 16 128 3.2 8.0 0.00 3.53 3.53 83 1012.4
20260505183405 17 138 3.2 9.7 0.00 3.53 3.53 82 1012.4
20260505181905 17 139 4.8 11.3 0.00 3.53 3.53 82 1012.4
20260505181407 17 149 3.2 9.7 0.00 3.53 3.53 81 1012.4
20260505180407 17 136 4.8 9.7 0.00 3.53 3.53 81 1012.4
20260505174905 17 140 1.6 8.0 0.00 3.53 3.53 79 1012.3
20260505174407 17 136 4.8 11.3 0.00 3.53 3.53 79 1012.2
20260505173406 18 136 3.2 11.3 0.00 3.53 3.53 78 1012.3
20260505171905 18 81 3.2 4.8 0.00 3.53 3.53 77 1012.2
20260505170905 18 229 0.0 4.8 0.00 3.53 3.53 76 1012.2
20260505170412 18 254 1.6 3.2 0.00 3.53 3.53 77 1012.2
20260505164912 18 139 0.0 4.8 0.00 3.53 3.53 75 1012.3
20260505164405 18 120 1.6 4.8 0.00 3.53 3.53 74 1012.3
20260505163905 18 161 1.6 4.8 0.00 3.53 3.53 74 1012.3
20260505163405 18 134 1.6 8.0 0.00 3.53 3.53 74 1012.2
20260505161905 18 162 1.6 4.8 0.00 3.53 3.53 76 1012.3
20260505161408 18 197 1.6 3.2 0.00 3.53 3.53 76 1012.3
20260505160905 18 227 1.6 4.8 0.00 3.53 3.53 76 1012.3
20260505160405 18 237 3.2 4.8 0.00 3.53 3.53 76 1012.4
20260505151905 18 178 0.0 4.8 0.00 3.53 3.53 76 1012.6
20260505151405 18 189 1.6 3.2 0.00 3.53 3.53 77 1012.6
20260505150905 18 138 1.6 4.8 0.00 3.53 3.53 78 1012.6
20260505150405 18 163 0.0 11.3 0.00 3.53 3.53 78 1012.6